Flag for Canada Weather past 2 weeks in Owen Sound, Ontario, Canada

Now
75 °F

Scattered clouds.


Feels Like: 78 °F
Forecast: 58 / 83 °F
Wind: 15 mph from Southwest

Location: Wiarton

Current Time: Aug 2, 2015 at 11:07:43 AM

Latest Report: Aug 2, 2015 at 10:00 AM


Visibility: 15 mi

Pressure: 29.75 "Hg

Humidity: 57%

Dew point: 59 °F

Location of Owen SoundLocation

Historic Weather in Owen Sound — Graph

°F

Owen Sound temperature yesterday

Maximum temperature yesterday: 73 °F (at 2:00 PM)
Minimum temperature yesterday: 57 °F (at 10:00 PM)
Average temperature yesterday: 67 °F

Past Weeks' High & Low Weather Summary

 TemperatureHumidityPressure
High90 °F (Jul 29, 3:00 PM)100% (Jul 20, 9:00 PM)30.05 "Hg (Jul 20, 9:00 PM)
Low48 °F (Jul 24, 5:00 AM)40% (Jul 29, 2:00 PM)29.62 "Hg (Jul 20, 6:00 PM)
Average69 °F75%29.87 "Hg
* Reported Jul 18 10:00 AM — Aug 2 10:00 AM, Owen Sound, Weather by CustomWeather, © 2015

Note: Actual official high and low records may vary slightly from our data, if they occured in-between our weather recording intervals... More about our weather records

Advertising

Owen Sound weather history for previous 24 hours

 ConditionsComfort  
Time TempWeatherWind HumidityBarometerVisibility
10:00 AM
Sun, Aug 2
75 °FScattered clouds.15 mph57%29.75 "Hg15 mi
9:00 AM72 °FScattered clouds.12 mph69%29.78 "Hg15 mi
8:00 AM68 °FPartly sunny.12 mph78%29.80 "Hg15 mi
7:00 AM61 °FPassing clouds.9 mph94%29.80 "Hg15 mi
6:00 AM59 °FPassing clouds.8 mph94%29.79 "Hg15 mi
5:00 AM55 °FPassing clouds.6 mph100%29.79 "Hg15 mi
4:00 AM57 °FPassing clouds.6 mph94%29.81 "Hg15 mi
3:00 AM57 °FPassing clouds.5 mph94%29.81 "Hg15 mi
2:00 AM55 °FClear.6 mph94%29.82 "Hg15 mi
1:00 AM57 °FPassing clouds.5 mph94%29.83 "Hg15 mi
12:00 AM57 °FPassing clouds.5 mph94%29.83 "Hg15 mi
11:00 PM
Sat, Aug 1
59 °FPassing clouds.2 mph94%29.83 "Hg15 mi
10:00 PM57 °FPassing clouds.3 mph94%29.83 "Hg15 mi
9:00 PM66 °FPassing clouds.5 mph73%29.82 "Hg15 mi
8:00 PM70 °FPassing clouds.8 mph64%29.81 "Hg15 mi
7:00 PM72 °FPassing clouds.9 mph57%29.81 "Hg15 mi
6:00 PM72 °FPartly sunny.9 mph61%29.82 "Hg15 mi
5:00 PM73 °FPassing clouds.8 mph57%29.83 "Hg15 mi
4:00 PM73 °FScattered clouds.12 mph65%29.83 "Hg15 mi
3:00 PM73 °FBroken clouds.15 mph61%29.83 "Hg15 mi
2:00 PM73 °FPartly sunny.13 mph57%29.84 "Hg15 mi
1:00 PM72 °FPartly sunny.13 mph57%29.85 "Hg15 mi
12:00 PM70 °FPartly sunny.12 mph64%29.85 "Hg15 mi
11:00 AM70 °FPartly sunny.10 mph64%29.85 "Hg15 mi
Weather by CustomWeather, © 2015

See weather overviewHow to use our weather pages